Location: Avenches
(46.8809°N, 7.0410°E)
Time: 18:35:49
(UTC+00:00)

Cosmos 1825 Rocket - Pass Details

Date: 30 March 2020
Orbit: 604 x 631 km, 82.5° (Epoch: 03 June)

Event Time Altitude Azimuth Distance (km) Brightness Sun altitude
Rises 19:30:14 0° 357° (N) 2,923 7.4 -15.8°
Reaches altitude 10° 19:32:36 10° 4° (N) 2,007 6.4 -16.2°
Maximum altitude 19:36:48 40° 75° (ENE) 915 4.0 -16.8°
Enters shadow 19:37:59 33° 113° (ESE) 1,041 4.1 -17.0°
